Preston, Minnesota, United States (55965)
Lat: 43.67N, Lon: 92.08W
Wx Zone: MNZ095
Local Info
Past Weather Observations for Today

NOTE: This archive is for the closest National Weather Service station to Preston. Information may differ from the station used for current weather conditions.

Click here for Long-term Archive

Time Weather Temperature Dewpoint Humidity Pressure Winds Precip Visibility
09:16
Partly Cloudy
59°F / 15°C 54°F / 12°C 82% 30.01 in
(1016 mb)
SSE 8.1 mph
(SSE 13 kph)
- 10SM
08:56
Partly Cloudy
57°F / 14°C 54°F / 12°C 88% 30.01 in
(1016 mb)
SW 5.8 mph
(SW 9 kph)
- 10SM
08:35
Mostly Cloudy
55°F / 13°C 54°F / 12°C 94% 30.01 in
(1016 mb)
Calm - 10SM
08:16
Mostly Cloudy
54°F / 12°C 52°F / 11°C 94% 30.01 in
(1016 mb)
SSE 3.5 mph
(SSE 6 kph)
- 10SM
07:56
Mostly Cloudy
52°F / 11°C 50°F / 10°C 94% 30.01 in
(1016 mb)
SSE 4.6 mph
(SSE 7 kph)
- 10SM
07:35
Overcast
52°F / 11°C 50°F / 10°C 94% 30.01 in
(1016 mb)
S 4.6 mph
(S 7 kph)
- 10SM
07:16
Overcast
50°F / 10°C 50°F / 10°C 100% 30.01 in
(1016 mb)
S 4.6 mph
(S 7 kph)
- 7SM
06:56
Overcast
50°F / 10°C 48°F / 9°C 94% 30.01 in
(1016 mb)
S 4.6 mph
(S 7 kph)
- 10SM
06:35
Overcast
48°F / 9°C 48°F / 9°C 100% 30.01 in
(1016 mb)
Calm - 10SM
06:16
Overcast
48°F / 9°C 48°F / 9°C 100% 30.01 in
(1016 mb)
S 5.8 mph
(S 9 kph)
- 10SM
05:55
Overcast
48°F / 9°C 48°F / 9°C 100% 30.01 in
(1016 mb)
Calm - 10SM
05:35
Overcast
46°F / 8°C 46°F / 8°C 100% 30.01 in
(1016 mb)
SW 6.9 mph
(SW 11 kph)
- 10SM
05:16
Mostly Cloudy
46°F / 8°C 46°F / 8°C 100% 30.01 in
(1016 mb)
SW 3.5 mph
(SW 6 kph)
- 10SM
04:55
Mostly Cloudy
48°F / 9°C 48°F / 9°C 100% 30.01 in
(1016 mb)
S 4.6 mph
(S 7 kph)
- 10SM
04:35
Overcast
48°F / 9°C 48°F / 9°C 100% 30.01 in
(1016 mb)
SW 6.9 mph
(SW 11 kph)
- 10SM
04:16
Mostly Cloudy
48°F / 9°C 46°F / 8°C 94% 30.01 in
(1016 mb)
SW 6.9 mph
(SW 11 kph)
- 10SM
03:55
Mostly Cloudy
48°F / 9°C 46°F / 8°C 94% 30.01 in
(1016 mb)
SW 3.5 mph
(SW 6 kph)
- 10SM
03:35
Overcast
48°F / 9°C 48°F / 9°C 100% 30.01 in
(1016 mb)
S 4.6 mph
(S 7 kph)
- 10SM
03:16
Overcast
48°F / 9°C 48°F / 9°C 100% 30.01 in
(1016 mb)
SW 4.6 mph
(SW 7 kph)
- 10SM
02:55
Overcast
48°F / 9°C 48°F / 9°C 100% 30.04 in
(1017 mb)
SW 4.6 mph
(SW 7 kph)
- 10SM
02:35
Mostly Cloudy
46°F / 8°C 46°F / 8°C 100% 30.04 in
(1017 mb)
SSE 4.6 mph
(SSE 7 kph)
- 10SM
02:16
Partly Cloudy
48°F / 9°C 46°F / 8°C 94% 30.04 in
(1017 mb)
SW 4.6 mph
(SW 7 kph)
- 10SM
01:55
Overcast
48°F / 9°C 48°F / 9°C 100% 30.04 in
(1017 mb)
SW 4.6 mph
(SW 7 kph)
- 10SM
01:36
Overcast
48°F / 9°C 46°F / 8°C 94% 30.04 in
(1017 mb)
SW 5.8 mph
(SW 9 kph)
- 10SM
01:16
Mostly Cloudy
46°F / 8°C 46°F / 8°C 100% 30.04 in
(1017 mb)
SW 3.5 mph
(SW 6 kph)
- 10SM
00:55
Clear
46°F / 8°C 46°F / 8°C 100% 30.04 in
(1017 mb)
SSE 3.5 mph
(SSE 6 kph)
- 10SM
00:36
Clear
46°F / 8°C 46°F / 8°C 100% 30.04 in
(1017 mb)
Calm - 10SM
00:16
Clear
48°F / 9°C 46°F / 8°C 94% 30.04 in
(1017 mb)
S 4.6 mph
(S 7 kph)
- 10SM
Time Weather Temperature Dewpoint Humidity Pressure Winds Precip Visibility


Weather for websites

WeatherForYou.com, LLC is not responsible for any damages or problems caused by this service. Current weather conditions are obtained from the closest station including government and personal stations which may have varying degrees of accuracy. Weather forecasts are derived from the NOAA NDFD. Like all things, this site belongs to Jesus Christ... He just trusts me to maintain it. If you have any questions or comments email webmaster@weatherforyou.com

Copyright © 2014, WeatherForYou.com LLC. All rights reserved.